Latham, NY

9:48 AM EDT on August 28, 2016 (GMT -0400)
Albany International

Weather History for KALB - June, 2013

Change the Weather History Date:

Tuesday, June 25, 2013

  Actual Average Record
Temperature  
Mean Temperature 78 °F 70 °F  
Max Temperature 91 °F 80 °F 95 °F (1898)
Min Temperature 64 °F 59 °F 45 °F (1979)
Degree Days  
Heating Degree Days 0 1  
Month to date heating degree days 55 50  
Since 1 June heating degree days 55 50  
Since 1 July heating degree days 6316 6678  
Cooling Degree Days 13 5  
Month to date cooling degree days 92 87  
Year to date cooling degree days 141 117  
Since 1 June cooling degree days 92 87  
Growing Degree Days 28 (Base 50)    
Moisture  
Dew Point 68 °F    
Average Humidity 75    
Maximum Humidity 100    
Minimum Humidity 50    
Precipitation  
Precipitation 0.58 in 0.13 in 1.61 in (2014)
Month to date precipitation 6.17 3.19  
Year to date precipitation 20.91 17.97  
Sea Level Pressure  
Sea Level Pressure 29.85 in    
Wind  
Wind Speed 4 mph (SW)    
Max Wind Speed 26 mph    
Max Gust Speed 44 mph    
Visibility 8 miles    
Events Fog , Rain , Thunderstorm    
T = Trace of Precipitation, MM = Missing Value Source: NWS Daily Summary

Daily Weather History Graph

Daily Weather History Graph

Search for Another Location

Airport or City:

Trip Planner

Search our weather history database for the weather conditions in past years. The results will help you decide how hot, cold, wet, or windy it might be!

Date:

Astronomy

Jun. 25, 2013 Rise Set
Actual Time 5:18 AM EDT 8:37 PM EDT
Civil Twilight 4:43 AM EDT 9:12 PM EDT
Nautical Twilight 3:57 AM EDT 9:58 PM EDT
Astronomical Twilight 3:01 AM EDT 10:54 PM EDT
Moon 10:16 PM EDT (6/25) 7:58 AM EDT (6/25)
Length of Visible Light 16h 29m
Length of Day
15h 19m
Waning Gibbous, 93% of the Moon is Illuminated
Jun 25
Waning Gibbous
Jun 30
Last Quarter
Jul 8
New
Jul 15
First Quarter
Jul 22
Full

Hourly Weather History & Observations

Time (EDT) Temp. Heat Index Dew Point Humidity Pressure Visibility Wind Dir Wind Speed Gust Speed Precip Events Conditions
12:51 AM 66.9 °F - 64.9 °F 93% 29.97 in 10.0 mi Calm Calm - N/A   Mostly Cloudy
1:51 AM 68.0 °F - 64.9 °F 90% 29.96 in 10.0 mi Calm Calm - N/A   Overcast
2:51 AM 66.9 °F - 64.9 °F 93% 29.94 in 10.0 mi Calm Calm - N/A   Scattered Clouds
3:51 AM 66.0 °F - 64.0 °F 93% 29.94 in 10.0 mi Calm Calm - N/A Fog Shallow Fog
4:51 AM 64.9 °F - 64.0 °F 97% 29.94 in 9.0 mi Calm Calm - N/A Fog Shallow Fog
5:51 AM 64.9 °F - 63.0 °F 93% 29.94 in 8.0 mi Calm Calm - N/A Fog Mostly Cloudy
6:51 AM 68.0 °F - 64.9 °F 90% 29.93 in 10.0 mi Calm Calm - N/A Fog Mostly Cloudy
7:51 AM 70.0 °F - 66.0 °F 87% 29.92 in 8.0 mi South 4.6 mph - N/A   Mostly Cloudy
8:51 AM 72.0 °F - 66.0 °F 81% 29.93 in 9.0 mi SSE 5.8 mph - N/A   Mostly Cloudy
9:51 AM 75.9 °F - 66.9 °F 74% 29.91 in 10.0 mi SSE 4.6 mph - N/A   Mostly Cloudy
10:51 AM 80.1 °F 82.7 °F 68.0 °F 67% 29.91 in 10.0 mi South 3.5 mph - N/A   Scattered Clouds
11:51 AM 84.9 °F 88.2 °F 68.0 °F 57% 29.89 in 10.0 mi SSE 8.1 mph - N/A   Scattered Clouds
12:51 PM 88.0 °F 92.1 °F 69.1 °F 53% 29.86 in 10.0 mi South 8.1 mph - N/A   Scattered Clouds
1:51 PM 89.1 °F 94.1 °F 70.0 °F 53% 29.81 in 10.0 mi South 8.1 mph - N/A   Mostly Cloudy
2:51 PM 88.0 °F 90.7 °F 66.9 °F 49% 29.78 in 10.0 mi South 11.5 mph - N/A   Mostly Cloudy
3:44 PM 80.6 °F 83.9 °F 69.8 °F 70% 29.77 in 1.5 mi SSW 9.2 mph 25.3 mph 0.01 in Rain Light Rain
3:46 PM 78.8 °F - 69.8 °F 74% 29.77 in 1.0 mi SSW 8.1 mph 25.3 mph 0.07 in Rain Rain
3:51 PM 79.0 °F - 70.0 °F 74% 29.79 in 1.0 mi SW 16.1 mph 26.5 mph 0.11 in Rain , Thunderstorm Thunderstorms and Rain
3:58 PM 77.0 °F - 68.0 °F 74% 29.79 in 0.8 mi Variable 5.8 mph 43.7 mph 0.15 in Rain , Thunderstorm Heavy Thunderstorms and Rain
4:02 PM 78.8 °F - 66.2 °F 65% 29.77 in 7.0 mi Variable 4.6 mph 39.1 mph 0.30 in Rain , Thunderstorm Light Thunderstorms and Rain
4:20 PM 77.0 °F - 71.6 °F 83% 29.77 in 10.0 mi Calm Calm - 0.30 in   Mostly Cloudy
4:51 PM 75.9 °F - 70.0 °F 82% 29.78 in 10.0 mi North 11.5 mph - 0.30 in   Overcast
5:01 PM 73.4 °F - 69.8 °F 88% 29.81 in 1.8 mi NW 15.0 mph 20.7 mph 0.02 in Rain Light Rain
5:09 PM 73.4 °F - 69.8 °F 88% 29.80 in 7.0 mi NW 15.0 mph - 0.14 in Rain Light Rain
5:51 PM 75.0 °F - 70.0 °F 84% 29.78 in 10.0 mi West 5.8 mph - 0.17 in   Mostly Cloudy
6:51 PM 77.0 °F - 70.0 °F 79% 29.79 in 10.0 mi WSW 5.8 mph - N/A   Mostly Cloudy
7:51 PM 77.0 °F - 71.1 °F 82% 29.78 in 10.0 mi WSW 3.5 mph - N/A   Mostly Cloudy
8:51 PM 75.0 °F - 69.1 °F 82% 29.80 in 9.0 mi WSW 5.8 mph - N/A   Mostly Cloudy
9:51 PM 73.9 °F - 68.0 °F 82% 29.80 in 10.0 mi WNW 3.5 mph - N/A   Scattered Clouds
10:51 PM 72.0 °F - 69.1 °F 91% 29.80 in 9.0 mi Calm Calm - N/A   Mostly Cloudy
11:51 PM 73.0 °F - 69.1 °F 87% 29.79 in 10.0 mi Calm Calm - N/A   Overcast